Location: Newark
(34.1333°N, 7.9667°W)
Time: 16:54:47
(UTC+00:00)

CUBESAT XI-V - Pass Details

Date: 18 June 2023
Orbit: 661 x 686 km, 98.2° (Epoch: 28 September)

Event Time Altitude Azimuth Distance (km) Brightness Sun altitude
Exits shadow 02:21:06 68° 42° (NE) 715 ? -27.0°
Drops below altitude 10° 02:25:18 10° 352° (N) 2,085 ? -26.6°
Sets 02:27:30 0° 351° (N) 2,986 ? -26.4°
